Airfield :
LOGIN :

Register | Disclaimer

   EN    FR    IT 

 










Legend :    VFR   Marginal VFR   IFR   Intensive IFR   Very Intensive IFR
Visi :
Ceiling :
>= 8 km
>= 3000ft
5 to 8 km
1000 to 3000 ft
1500m to 5 km
500 to 1000 ft
800 to 1500m
200 to 500 ft
< 800m
< 200 ft
Symbols :   Thunderstorms  Fog  Heavy snow  Heavy precipitations  Wind > 20 kt
SIGMETs :     Misc.  Thunderstorms  Icing  Turbulence  Mountain Waves  Volcanic Ashes







- Airport Elevation : 135 ft
- IATA code : EDI
- Download approach charts


EGPH - Edinburgh

CURRENT METAR :
  • 251150Z 25013KT 220V290 9999 VCSH BKN031 11/04 Q1003

EXPIRED METARs :
  • 251120Z 24017KT 9999 VCSH BKN031 12/04 Q1003
  • 251050Z 25014KT 9999 BKN026 10/04 Q1003
  • 251020Z 25012KT 220V280 9999 BKN023 10/05 Q1003
  • 250950Z 26014KT 9999 BKN023TCU 10/05 Q1003
  • 250920Z 24016KT 9999 FEW018 BKN023 11/06 Q1003

TAF TAF EGPH
Valid from the 25 at 12:00 until the 26 at 12:00 UTC


251058Z 2512/2612 24012KT 9999 BKN030
TEMPO 2512/2612 25015G25KT 4000 SHRA BKN012CB
ATIS : +44 131 339 2823
No reported NOTAMs for that airfield.



MET'MAP, your aeronautical weather chart ! - Copyright ORBIFLY December 2007 - Disclaimer

ORBIFLY MET'MAP TEAM :

Programming & Development : Alexandra Zaïnal
Concept & Development : Baudouin d'Aumeries
Co-Development & Prog : Marc-Olivier Méhu
Technical & hardware support : Manuel Goepfert

Contact : metmap@orbifly.com




SOURCES & CREDITS :

   NOAA